TimeEST,TemperatureF,Dew PointF,Humidity,Sea Level PressureIn,VisibilityMPH,Wind Direction,Wind SpeedMPH,Gust SpeedMPH,PrecipitationIn,Events,Conditions,WindDirDegrees,DateUTC
12:15 AM,55.4,46.4,72,30.18,10.0,SW,9.2,-,N/A,,Clear,220,2012-12-04 05:15:00
12:35 AM,55.4,46.4,72,30.18,10.0,SW,8.1,-,N/A,,Clear,220,2012-12-04 05:35:00
12:55 AM,55.4,46.4,72,30.18,10.0,SW,8.1,-,N/A,,Clear,230,2012-12-04 05:55:00
1:15 AM,55.4,46.4,72,30.18,10.0,SW,8.1,-,N/A,,Clear,220,2012-12-04 06:15:00
1:35 AM,55.4,46.4,72,30.17,10.0,SW,8.1,-,N/A,,Mostly Cloudy,220,2012-12-04 06:35:00
1:55 AM,55.4,46.4,72,30.18,10.0,SW,5.8,-,N/A,,Overcast,220,2012-12-04 06:55:00
2:15 AM,55.4,46.4,72,30.18,10.0,SSW,9.2,-,N/A,,Overcast,210,2012-12-04 07:15:00
2:35 AM,57.2,46.4,67,30.18,10.0,SW,6.9,-,N/A,,Mostly Cloudy,230,2012-12-04 07:35:00
2:55 AM,55.4,46.4,72,30.18,10.0,SW,6.9,-,N/A,,Mostly Cloudy,230,2012-12-04 07:55:00
3:15 AM,55.4,46.4,72,30.17,10.0,SSW,8.1,-,N/A,,Scattered Clouds,210,2012-12-04 08:15:00
3:55 AM,55.4,46.4,72,30.17,10.0,SW,5.8,-,N/A,,Overcast,230,2012-12-04 08:55:00
4:15 AM,55.4,48.2,77,30.16,10.0,SSW,6.9,-,N/A,,Mostly Cloudy,210,2012-12-04 09:15:00
4:35 AM,55.4,48.2,77,30.16,10.0,SW,6.9,-,N/A,,Mostly Cloudy,220,2012-12-04 09:35:00
4:55 AM,57.2,48.2,72,30.16,10.0,SW,6.9,-,N/A,,Mostly Cloudy,220,2012-12-04 09:55:00
5:15 AM,57.2,48.2,72,30.16,10.0,SW,6.9,-,N/A,,Mostly Cloudy,220,2012-12-04 10:15:00
5:35 AM,55.4,50.0,82,30.16,10.0,SSW,9.2,-,N/A,,Scattered Clouds,210,2012-12-04 10:35:00
5:55 AM,55.4,50.0,82,30.16,10.0,SW,9.2,-,N/A,,Mostly Cloudy,220,2012-12-04 10:55:00
6:15 AM,57.2,50.0,77,30.16,10.0,SW,8.1,-,N/A,,Overcast,220,2012-12-04 11:15:00
6:35 AM,59.0,50.0,72,30.16,10.0,SW,6.9,-,N/A,,Overcast,230,2012-12-04 11:35:00
6:55 AM,59.0,50.0,72,30.16,10.0,SW,8.1,-,N/A,,Overcast,220,2012-12-04 11:55:00
7:15 AM,59.0,50.0,72,30.16,10.0,SW,9.2,-,N/A,,Overcast,220,2012-12-04 12:15:00
7:35 AM,59.0,50.0,72,30.17,10.0,SW,8.1,-,N/A,,Overcast,230,2012-12-04 12:35:00
7:55 AM,59.0,51.8,77,30.17,10.0,SW,8.1,-,N/A,,Overcast,230,2012-12-04 12:55:00
8:15 AM,59.0,51.8,77,30.17,10.0,SW,10.4,-,N/A,,Overcast,230,2012-12-04 13:15:00
8:35 AM,57.2,53.6,88,30.17,10.0,SW,11.5,17.3,N/A,Rain,Light Rain,220,2012-12-04 13:35:00
8:55 AM,57.2,53.6,88,30.17,10.0,SW,8.1,-,N/A,Rain,Rain,220,2012-12-04 13:55:00
9:15 AM,55.4,53.6,94,30.17,4.0,SW,12.7,-,N/A,Rain,Heavy Rain,220,2012-12-04 14:15:00
9:35 AM,57.2,55.4,94,30.18,10.0,SW,9.2,-,N/A,Rain,Light Rain,220,2012-12-04 14:35:00
9:55 AM,59.0,55.4,88,30.18,10.0,SW,11.5,18.4,N/A,Rain,Light Rain,220,2012-12-04 14:55:00
10:15 AM,59.0,55.4,88,30.18,3.0,SSW,9.2,17.3,N/A,Rain,Heavy Rain,210,2012-12-04 15:15:00
10:35 AM,59.0,55.4,88,30.18,10.0,SW,8.1,-,N/A,,Overcast,220,2012-12-04 15:35:00
10:55 AM,60.8,55.4,82,30.17,10.0,SW,8.1,-,N/A,,Overcast,230,2012-12-04 15:55:00
11:15 AM,60.8,55.4,82,30.17,10.0,WSW,11.5,17.3,N/A,,Overcast,240,2012-12-04 16:15:00
11:35 AM,60.8,55.4,82,30.16,7.0,WSW,12.7,21.9,N/A,Rain,Light Rain,240,2012-12-04 16:35:00
11:55 AM,59.0,57.2,94,30.15,4.0,SW,10.4,-,N/A,Rain,Heavy Rain,230,2012-12-04 16:55:00
12:15 PM,62.6,55.4,77,30.14,10.0,WSW,15.0,19.6,N/A,,Overcast,240,2012-12-04 17:15:00
12:35 PM,62.6,55.4,77,30.14,10.0,West,12.7,17.3,N/A,,Overcast,260,2012-12-04 17:35:00
12:55 PM,62.6,57.2,82,30.13,10.0,WSW,9.2,-,N/A,,Overcast,250,2012-12-04 17:55:00
1:15 PM,62.6,57.2,82,30.12,10.0,WSW,10.4,17.3,N/A,,Overcast,250,2012-12-04 18:15:00
1:35 PM,64.4,55.4,73,30.11,10.0,WSW,9.2,-,N/A,,Overcast,250,2012-12-04 18:35:00
1:55 PM,64.4,55.4,73,30.11,10.0,WSW,16.1,20.7,N/A,Rain,Light Rain,250,2012-12-04 18:55:00
2:15 PM,62.6,55.4,77,30.10,10.0,WSW,15.0,23.0,N/A,,Overcast,240,2012-12-04 19:15:00
2:35 PM,62.6,55.4,77,30.09,10.0,WSW,13.8,19.6,N/A,,Overcast,240,2012-12-04 19:35:00
2:55 PM,62.6,55.4,77,30.09,10.0,WSW,13.8,21.9,N/A,Rain,Light Rain,240,2012-12-04 19:55:00
3:15 PM,62.6,55.4,77,30.08,10.0,SW,10.4,17.3,N/A,Rain,Light Rain,230,2012-12-04 20:15:00
3:35 PM,60.8,55.4,82,30.08,5.0,WSW,10.4,16.1,N/A,Rain,Light Rain,240,2012-12-04 20:35:00
3:55 PM,62.6,55.4,77,30.09,10.0,West,9.2,-,N/A,Rain,Light Rain,260,2012-12-04 20:55:00
4:15 PM,62.6,55.4,77,30.09,10.0,WSW,9.2,-,N/A,,Overcast,240,2012-12-04 21:15:00
4:35 PM,62.6,55.4,77,30.09,10.0,WSW,12.7,-,N/A,,Overcast,250,2012-12-04 21:35:00
4:55 PM,62.6,55.4,77,30.09,10.0,WSW,9.2,-,N/A,Rain,Light Rain,250,2012-12-04 21:55:00
5:15 PM,62.6,55.4,77,30.09,10.0,WSW,8.1,-,N/A,,Overcast,250,2012-12-04 22:15:00
5:55 PM,62.6,53.6,72,30.10,10.0,WSW,8.1,-,N/A,,Overcast,240,2012-12-04 22:55:00
6:15 PM,62.6,53.6,72,30.10,10.0,WSW,9.2,-,N/A,,Overcast,240,2012-12-04 23:15:00
6:35 PM,62.6,53.6,72,30.10,10.0,West,6.9,-,N/A,Rain,Light Rain,260,2012-12-04 23:35:00
6:55 PM,59.0,57.2,94,30.13,4.0,West,9.2,23.0,N/A,Rain,Rain,280,2012-12-04 23:55:00
7:15 PM,59.0,57.2,94,30.13,10.0,West,6.9,-,N/A,Rain,Light Rain,280,2012-12-05 00:15:00
7:35 PM,59.0,57.2,94,30.14,10.0,West,6.9,-,N/A,,Drizzle,270,2012-12-05 00:35:00
7:55 PM,59.0,55.4,88,30.13,10.0,WSW,10.4,-,N/A,,Overcast,250,2012-12-05 00:55:00
8:15 PM,59.0,55.4,88,30.14,10.0,West,9.2,-,N/A,,Overcast,260,2012-12-05 01:15:00
8:35 PM,53.6,51.8,94,30.17,4.0,NNE,13.8,24.2,N/A,Rain,Rain,30,2012-12-05 01:35:00
8:55 PM,48.2,46.4,93,30.19,7.0,NNE,11.5,23.0,N/A,Rain,Light Rain,30,2012-12-05 01:55:00
9:15 PM,46.4,44.6,93,30.20,10.0,North,11.5,18.4,N/A,Rain,Light Rain,10,2012-12-05 02:15:00
9:35 PM,44.6,44.6,100,30.20,7.0,NNE,9.2,17.3,N/A,Rain,Light Rain,20,2012-12-05 02:35:00
9:55 PM,44.6,42.8,93,30.22,5.0,NE,12.7,24.2,N/A,Rain,Rain,50,2012-12-05 02:55:00
10:15 PM,42.8,41.0,93,30.23,7.0,NE,4.6,16.1,N/A,Rain,Light Rain,40,2012-12-05 03:15:00
10:35 PM,42.8,42.8,100,30.23,10.0,ENE,8.1,-,N/A,Rain,Light Rain,60,2012-12-05 03:35:00
10:55 PM,42.8,42.8,100,30.23,10.0,ENE,9.2,-,N/A,Rain,Rain,70,2012-12-05 03:55:00
11:15 PM,44.6,42.8,93,30.22,10.0,East,9.2,-,N/A,,Overcast,80,2012-12-05 04:15:00
11:35 PM,42.8,41.0,93,30.23,10.0,ENE,6.9,-,N/A,,Light Drizzle,60,2012-12-05 04:35:00
11:55 PM,42.8,41.0,93,30.23,10.0,ENE,5.8,-,N/A,Rain,Light Rain,70,2012-12-05 04:55:00